Radiation Dose at Monitoring Post of Fukushima Daini Nuclear Power Station
Date,Time,MP-1(microSv/h),MP-2(microSv/h),MP-3(microSv/h),MP-4(microSv/h),MP-5(microSv/h),MP-6(microSv/h),MP-7(microSv/h),Wind Direction,Wind Velocity(m/s),Rain
2013/10/02,00:00,0.8,0.6,0.8,0.8,0.8,0.4,0.3,north-northwest,2.4,No
2013/10/02,00:10,0.8,0.6,0.8,0.8,0.8,0.4,0.3,north,2.5,No
2013/10/02,00:20,0.8,0.6,0.8,0.8,0.8,0.4,0.3,north-northwest,2.5,No
2013/10/02,00:30,0.8,0.6,0.8,0.8,0.8,0.4,0.3,north,3.6,No
2013/10/02,00:40,0.8,0.6,0.8,0.8,0.8,0.4,0.3,north,4.1,No
2013/10/02,00:50,0.8,0.6,0.8,0.8,0.8,0.4,0.3,north,4.0,No
2013/10/02,01:00,0.8,0.6,0.8,0.8,0.8,0.4,0.3,north,3.9,No
2013/10/02,01:10,0.8,0.6,0.8,0.8,0.8,0.4,0.3,north,5.1,No
2013/10/02,01:20,0.8,0.6,0.8,0.8,0.8,0.4,0.3,north,4.7,No
2013/10/02,01:30,0.8,0.6,0.8,0.8,0.8,0.4,0.3,north,4.6,Yes
2013/10/02,01:40,0.8,0.6,0.8,0.8,0.8,0.4,0.3,north,4.7,No
2013/10/02,01:50,0.8,0.6,0.8,0.8,0.8,0.4,0.3,north,5.0,No
2013/10/02,02:00,0.8,0.6,0.8,0.8,0.8,0.4,0.3,north,5.3,No
2013/10/02,02:10,0.8,0.6,0.8,0.8,0.8,0.4,0.3,north,5.8,Yes
2013/10/02,02:20,0.8,0.6,0.8,0.8,0.8,0.4,0.3,north,5.1,Yes
2013/10/02,02:30,0.8,0.6,0.8,0.8,0.8,0.4,0.3,north,5.7,Yes
2013/10/02,02:40,0.8,0.6,0.8,0.8,0.8,0.4,0.3,north,5.3,Yes
2013/10/02,02:50,0.8,0.6,0.8,0.8,0.8,0.4,0.3,north,5.5,Yes
2013/10/02,03:00,0.8,0.6,0.8,0.8,0.8,0.4,0.3,north,5.3,No
2013/10/02,03:10,0.8,0.6,0.8,0.8,0.8,0.4,0.3,north,5.3,No
2013/10/02,03:20,0.8,0.6,0.8,0.8,0.8,0.4,0.3,north,5.7,No
2013/10/02,03:30,0.9,0.6,0.8,0.8,0.8,0.4,0.3,north,5.4,Yes
2013/10/02,03:40,0.8,0.6,0.8,0.8,0.8,0.4,0.3,north,4.8,Yes
2013/10/02,03:50,0.8,0.6,0.8,0.8,0.8,0.4,0.3,north,5.4,Yes
2013/10/02,04:00,0.8,0.6,0.8,0.8,0.8,0.4,0.3,north,7.2,Yes
2013/10/02,04:10,0.8,0.6,0.8,0.8,0.8,0.4,0.3,north,6.0,Yes
2013/10/02,04:20,0.8,0.6,0.8,0.8,0.8,0.4,0.3,north,4.8,Yes
2013/10/02,04:30,0.8,0.6,0.8,0.8,0.8,0.4,0.3,north-northeast,6.4,Yes
2013/10/02,04:40,0.8,0.6,0.8,0.8,0.8,0.4,0.3,north,7.0,Yes
2013/10/02,04:50,0.8,0.6,0.8,0.8,0.8,0.4,0.3,north-northeast,6.2,Yes
2013/10/02,05:00,0.8,0.6,0.8,0.8,0.8,0.4,0.3,north,7.4,Yes
2013/10/02,05:10,0.8,0.6,0.8,0.8,0.8,0.4,0.3,north-northeast,7.7,Yes
2013/10/02,05:20,0.8,0.6,0.8,0.8,0.8,0.4,0.3,north,5.6,No
2013/10/02,05:30,0.8,0.6,0.8,0.8,0.8,0.4,0.3,north,5.0,No
2013/10/02,05:40,0.8,0.6,0.8,0.8,0.8,0.4,0.3,north,5.0,Yes
2013/10/02,05:50,0.8,0.6,0.8,0.8,0.8,0.4,0.3,north,5.7,Yes
2013/10/02,06:00,0.8,0.6,0.8,0.8,0.7,0.4,0.3,north,5.0,Yes
2013/10/02,06:10,0.8,0.6,0.8,0.8,0.8,0.4,0.3,north,4.6,Yes
2013/10/02,06:20,0.8,0.6,0.8,0.8,0.8,0.4,0.3,north,5.0,Yes
2013/10/02,06:30,0.8,0.6,0.8,0.8,0.8,0.4,0.3,north,6.2,Yes
2013/10/02,06:40,0.8,0.6,0.8,0.8,0.7,0.4,0.3,north,6.6,Yes
2013/10/02,06:50,0.8,0.6,0.8,0.8,0.7,0.4,0.3,north,5.8,Yes
2013/10/02,07:00,0.8,0.6,0.8,0.8,0.8,0.4,0.3,north,5.0,Yes
2013/10/02,07:10,0.8,0.6,0.8,0.8,0.8,0.4,0.3,north,5.9,Yes
2013/10/02,07:20,0.8,0.6,0.8,0.8,0.7,0.4,0.3,north,6.1,Yes
2013/10/02,07:30,0.8,0.6,0.8,0.8,0.7,0.4,0.3,north-northeast,6.7,Yes
2013/10/02,07:40,0.8,0.6,0.8,0.8,0.7,0.4,0.3,north,5.0,Yes
2013/10/02,07:50,0.8,0.6,0.8,0.8,0.7,0.3,0.3,north,5.3,Yes
2013/10/02,08:00,0.8,0.6,0.8,0.8,0.7,0.3,0.3,west-northwest,9.9,Yes
2013/10/02,08:10,0.8,0.5,0.8,0.8,0.7,0.3,0.3,north,11.3,Yes
2013/10/02,08:20,0.8,0.5,0.8,0.8,0.7,0.3,0.3,south,2.9,Yes
2013/10/02,08:30,0.8,0.5,0.8,0.8,0.7,0.3,0.3,north-northwest,4.2,Yes
2013/10/02,08:40,0.8,0.5,0.8,0.8,0.7,0.3,0.3,north-northwest,6.0,Yes
2013/10/02,08:50,0.8,0.5,0.8,0.8,0.7,0.3,0.3,north,6.6,Yes
2013/10/02,09:00,0.8,0.5,0.8,0.8,0.7,0.3,0.3,north,6.8,Yes
2013/10/02,09:10,0.8,0.5,0.8,0.8,0.7,0.3,0.3,north,6.7,Yes
2013/10/02,09:20,0.8,0.5,0.8,0.8,0.7,0.3,0.3,north-northwest,6.5,Yes
2013/10/02,09:30,0.8,0.5,0.8,0.8,0.7,0.3,0.3,north,7.8,Yes
2013/10/02,09:40,0.8,0.5,0.8,0.8,0.7,0.3,0.3,north-northwest,6.1,Yes
2013/10/02,09:50,0.8,0.5,0.8,0.8,0.7,0.3,0.3,north,6.7,Yes
2013/10/02,10:00,0.8,0.5,0.8,0.8,0.7,0.3,0.3,north,8.1,Yes
2013/10/02,10:10,0.8,0.5,0.8,0.8,0.7,0.3,0.3,north,9.1,Yes
2013/10/02,10:20,0.8,0.5,0.8,0.8,0.7,0.3,0.3,north,7.8,Yes
2013/10/02,10:30,0.8,0.5,0.8,0.8,0.7,0.3,0.3,northwest,5.1,Yes
2013/10/02,10:40,0.8,0.5,0.8,0.8,0.7,0.3,0.3,north-northwest,8.6,Yes
2013/10/02,10:50,0.8,0.5,0.8,0.8,0.7,0.3,0.3,north,8.2,Yes
2013/10/02,11:00,0.8,0.5,0.8,0.8,0.7,0.3,0.3,north,8.6,Yes
2013/10/02,11:10,0.8,0.5,0.8,0.8,0.7,0.3,0.3,north,8.2,Yes
2013/10/02,11:20,0.8,0.5,0.8,0.8,0.7,0.3,0.3,north,7.0,Yes
2013/10/02,11:30,0.8,0.5,0.8,0.8,0.7,0.3,0.3,north-northwest,7.5,Yes
2013/10/02,11:40,0.8,0.5,0.8,0.8,0.7,0.3,0.3,north,9.6,Yes
2013/10/02,11:50,0.8,0.5,0.8,0.8,0.7,0.3,0.3,north,7.6,Yes
2013/10/02,12:00,0.8,0.5,0.8,0.8,0.7,0.3,0.3,north,8.1,Yes
2013/10/02,12:10,0.8,0.5,0.8,0.8,0.7,0.3,0.3,north,8.1,Yes
2013/10/02,12:20,0.8,0.5,0.8,0.8,0.7,0.3,0.3,north,8.3,Yes
2013/10/02,12:30,0.8,0.5,0.8,0.8,0.7,0.3,0.3,north,7.9,Yes
2013/10/02,12:40,0.8,0.5,0.8,0.8,0.7,0.3,0.3,north,9.0,Yes
2013/10/02,12:50,0.8,0.5,0.8,0.8,0.7,0.3,0.3,north,7.7,Yes
2013/10/02,13:00,0.8,0.5,0.8,0.8,0.7,0.3,0.3,north,8.5,No
2013/10/02,13:10,0.8,0.5,0.8,0.8,0.7,0.3,0.3,north-northwest,9.6,No
2013/10/02,13:20,0.8,0.5,0.8,0.8,0.7,0.3,0.3,north,9.4,No
2013/10/02,13:30,0.8,0.5,0.8,0.8,0.7,0.3,0.3,north-northwest,9.8,No
2013/10/02,13:40,0.8,0.5,0.8,0.8,0.7,0.3,0.3,north,8.9,No
2013/10/02,13:50,0.8,0.5,0.8,0.8,0.7,0.3,0.3,north,9.5,No
2013/10/02,14:00,0.8,0.6,0.8,0.8,0.7,0.3,0.3,north-northwest,7.9,Yes
2013/10/02,14:10,0.8,0.5,0.8,0.8,0.7,0.3,0.3,north,9.9,Yes
2013/10/02,14:20,0.8,0.5,0.8,0.8,0.7,0.3,0.3,north,8.9,Yes
2013/10/02,14:30,0.8,0.5,0.8,0.8,0.7,0.3,0.3,north,8.9,Yes
2013/10/02,14:40,0.8,0.5,0.8,0.8,0.7,0.3,0.3,north,8.6,Yes
2013/10/02,14:50,0.8,0.5,0.8,0.7,0.7,0.3,0.3,north,9.9,Yes
2013/10/02,15:00,0.8,0.5,0.8,0.8,0.7,0.3,0.3,north-northwest,9.3,No
2013/10/02,15:10,0.8,0.5,0.8,0.8,0.7,0.3,0.3,north-northwest,9.9,Yes
2013/10/02,15:20,0.8,0.5,0.8,0.8,0.7,0.3,0.3,north-northwest,9.7,Yes
2013/10/02,15:30,0.8,0.5,0.8,0.8,0.7,0.3,0.3,north,9.8,Yes
2013/10/02,15:40,0.8,0.5,0.8,0.8,0.7,0.3,0.3,north,10.4,Yes
2013/10/02,15:50,0.8,0.5,0.8,0.8,0.7,0.3,0.3,north,9.4,Yes
2013/10/02,16:00,0.8,0.5,0.8,0.8,0.7,0.3,0.3,north-northwest,8.8,No
2013/10/02,16:10,0.8,0.5,0.8,0.8,0.7,0.3,0.3,north,10.3,No
2013/10/02,16:20,0.8,0.5,0.8,0.8,0.7,0.3,0.3,north,9.2,No
2013/10/02,16:30,0.8,0.5,0.8,0.8,0.7,0.3,0.3,north,8.1,Yes
2013/10/02,16:40,0.8,0.5,0.8,0.8,0.7,0.3,0.3,north,9.5,Yes
2013/10/02,16:50,0.8,0.5,0.8,0.8,0.7,0.3,0.3,north,10.1,Yes
2013/10/02,17:00,0.8,0.5,0.8,0.8,0.7,0.3,0.3,north,10.2,Yes
2013/10/02,17:10,0.8,0.5,0.8,0.8,0.7,0.3,0.3,north,12.2,Yes
2013/10/02,17:20,0.8,0.5,0.8,0.8,0.7,0.3,0.3,north-northwest,11.7,Yes
2013/10/02,17:30,0.8,0.5,0.8,0.8,0.7,0.3,0.3,north,10.6,Yes
2013/10/02,17:40,0.8,0.5,0.8,0.8,0.7,0.3,0.3,north,10.0,Yes
2013/10/02,17:50,0.8,0.5,0.8,0.8,0.7,0.3,0.3,north,9.8,Yes
2013/10/02,18:00,0.8,0.5,0.8,0.8,0.7,0.3,0.3,north-northwest,10.4,Yes
2013/10/02,18:10,0.8,0.5,0.8,0.8,0.7,0.3,0.3,north,12.1,Yes
2013/10/02,18:20,0.8,0.5,0.8,0.8,0.7,0.3,0.3,north,13.6,Yes
2013/10/02,18:30,0.8,0.5,0.8,0.8,0.7,0.3,0.3,north,10.8,No
2013/10/02,18:40,0.8,0.5,0.8,0.8,0.7,0.3,0.3,north,11.3,No
2013/10/02,18:50,0.8,0.5,0.8,0.8,0.7,0.3,0.3,north-northwest,11.0,No
2013/10/02,19:00,0.8,0.5,0.8,0.8,0.7,0.3,0.3,north-northwest,9.5,No
2013/10/02,19:10,0.8,0.5,0.8,0.8,0.7,0.3,0.3,north-northwest,9.1,No
2013/10/02,19:20,0.8,0.5,0.8,0.8,0.7,0.3,0.3,north-northwest,8.9,No
2013/10/02,19:30,0.8,0.5,0.8,0.8,0.7,0.3,0.3,north-northwest,10.3,No
2013/10/02,19:40,0.8,0.5,0.8,0.8,0.7,0.3,0.3,north-northwest,8.9,No
2013/10/02,19:50,0.8,0.5,0.8,0.8,0.8,0.3,0.3,north-northwest,9.0,No
2013/10/02,20:00,0.8,0.5,0.8,0.8,0.7,0.3,0.3,north-northwest,9.1,No
2013/10/02,20:10,0.8,0.5,0.8,0.8,0.7,0.3,0.3,north-northwest,8.2,No
2013/10/02,20:20,0.8,0.5,0.8,0.8,0.7,0.3,0.3,north-northwest,9.0,No
2013/10/02,20:30,0.8,0.5,0.8,0.8,0.8,0.3,0.3,north-northwest,7.0,No
2013/10/02,20:40,0.8,0.6,0.8,0.8,0.7,0.3,0.3,north-northwest,6.3,No
2013/10/02,20:50,0.8,0.5,0.8,0.8,0.8,0.3,0.3,north-northwest,5.7,No
2013/10/02,21:00,0.8,0.6,0.8,0.8,0.8,0.3,0.3,north-northwest,5.6,No
2013/10/02,21:10,0.8,0.6,0.8,0.8,0.7,0.3,0.3,northwest,5.4,No
2013/10/02,21:20,0.8,0.6,0.8,0.8,0.7,0.3,0.3,north-northwest,3.4,No
2013/10/02,21:30,0.8,0.6,0.8,0.8,0.8,0.3,0.3,west,3.1,No
2013/10/02,21:40,0.8,0.5,0.8,0.8,0.8,0.3,0.3,west-northwest,4.5,No
2013/10/02,21:50,0.8,0.5,0.8,0.8,0.7,0.3,0.3,north-northwest,1.4,No
2013/10/02,22:00,0.8,0.6,0.8,0.8,0.7,0.3,0.3,north-northeast,3.9,No
2013/10/02,22:10,0.8,0.6,0.8,0.8,0.8,0.3,0.3,north-northwest,2.8,No
2013/10/02,22:20,0.8,0.6,0.8,0.8,0.7,0.3,0.3,north,5.0,No
2013/10/02,22:30,0.8,0.6,0.8,0.8,0.7,0.3,0.3,north-northwest,3.4,No
2013/10/02,22:40,0.8,0.6,0.8,0.8,0.7,0.3,0.3,north,1.5,No
2013/10/02,22:50,0.8,0.6,0.8,0.8,0.8,0.3,0.3,north,2.0,No
2013/10/02,23:00,0.8,0.6,0.8,0.8,0.7,0.3,0.3,north-northwest,1.4,No
2013/10/02,23:10,0.8,0.6,0.8,0.8,0.7,0.4,0.3,south,1.5,No
2013/10/02,23:20,0.8,0.6,0.8,0.8,0.7,0.3,0.3,south,1.6,No
2013/10/02,23:30,0.8,0.6,0.8,0.8,0.8,0.3,0.3,southeast,1.4,No
2013/10/02,23:40,0.8,0.6,0.8,0.8,0.7,0.4,0.3,west-northwest,0.8,No
2013/10/02,23:50,0.8,0.6,0.8,0.8,0.7,0.3,0.3,northeast,1.4,No
